Regional Weather Roundup
Issued by NWS Green Bay, WI

Home | Current Version | Previous Version | Graphics & Text | Print | Product List | Glossary Off
Versions: 1 2 3 4 5 6 7 8 9 10 11 12 13 14 15 16 17 18 19 20 21 22 23 24 25 26 27 28 29 30 31 32 33 34 35 36 37 38 39 40 41 42 43 44 45 46 47 48 49 50

000
ASUS43 KGRB 272110
RWRGRB

NORTH-CENTRAL AND NORTHEAST WISCONSIN REGIONAL WEATHER ROUNDUP
NATIONAL WEATHER SERVICE GREEN BAY WI
300 PM CST THU NOV 27 2014

WIZ005-009-010>012-018-019-272200-
NORTH CENTRAL WISCONSIN

CITY           SKY/WX    TMP DP  RH WIND       PRES   REMARKS
IRONWOOD       CLOUDY     9   9 100 W7        30.32R WCI  -3
MANITOWISH WTR PTCLDY    10   1  67 N6        30.30S WCI   0
ARBOR VITAE    PTCLDY    10   2  71 NW3       30.30R
EAGLE RIVER    FLURRIES  10   2  69 NW5       30.28S WCI   2
LAND O LAKES   CLOUDY    10   4  75 N3        30.28S HAZE
RHINELANDER    CLEAR     10   0  63 NW7       30.29S WCI  -1
PHILLIPS       MOSUNNY   10  -1  61 NW3       30.32S
ANTIGO         SUNNY     11   1  64 N6        30.29S WCI   1
TOMAHAWK       SUNNY     12   1  63 CALM      30.31S
MERRILL        SUNNY     14   0  52 NW7       30.32S WCI   4
$$

WIZ013-073-272200-
NORTHEAST WISCONSIN

CITY           SKY/WX    TMP DP  RH WIND       PRES   REMARKS
IRON MOUNTAIN  PTCLDY    13   0  56 NW10      30.30R WCI   0
MARINETTE      CLEAR     18   1  49 N10       30.33R WCI   6
OCONTO         CLEAR     17   3  54 N6        30.35R WCI   9
$$

WIZ017-030-035>037-045-272200-
CENTRAL WISCONSIN

CITY           SKY/WX    TMP DP  RH WIND       PRES   REMARKS
MEDFORD        SUNNY     11  -1  58 W6        30.32S WCI   2
WAUSAU         SUNNY     13   2  61 W7        30.32S WCI   3
MOSINEE        SUNNY     12   7  79 W8        30.34S WCI   1
MARSHFIELD     SUNNY     10  -1  61 NW10      30.35S WCI  -4
WISC RAPIDS    SUNNY     13   0  56 NW9       30.38S WCI   1
STEVENS POINT  MOSUNNY   12   2  64 W6        30.35S WCI   3
WAUPACA        SUNNY     19   6  58 NW8       30.37R WCI   9
SHAWANO        SUNNY     19   5  54 W9        30.35S WCI   8
CLINTONVILLE   MOSUNNY   18   5  57 NW9       30.35S WCI   6
$$

WIZ038-039-048-051-272200-
FOX VALLEY

CITY           SKY/WX    TMP DP  RH WIND       PRES   REMARKS
NWS GREEN BAY  SUNNY     18   4  54 NW12      30.35S WCI   5
APPLETON       PTSUNNY   16   5  62 NW9       30.35R WCI   4
OSHKOSH        SUNNY     17   6  62 MISG      30.35R
FOND DU LAC    PTSUNNY   17   7  64 NW7       30.35S WCI   8
$$

WIZ022-050-052-272200-
EAST CENTRAL WISCONSIN

CITY           SKY/WX    TMP DP  RH WIND       PRES   REMARKS
STURGEON BAY   PTCLDY    18   3  53 NW9       30.33R WCI   6
MANITOWOC      SUNNY     18   8  65 NW12      30.35R WCI   5
SHEBOYGAN      SUNNY     18   6  59 NW9       30.35R WCI   7
$$

LMZ563-521-522-541>543-272200-
LAKESHORE

STATION/POSITION TIME  TEMP    WIND        PRES    VSBY  WAVE
                       AIR SEA DIR/SP/G                  HT/PER
                 (UTC) (F)     (DEG/KT/KT) (MB)    (MI)  (FT/S)
SHEBOYGAN LKSHOR 2100   18 34  320/ 13/ 15 1029.2R
KEWAUNEE LKSHORE 2100   18     320/ 10/ 13 1026.6R
NORTHPORT PIER   2100   19     330/ 17/ 21 1026.8R
N MID LAKE BUOY  2100   20 42  320/ 17/ 23 1026.8R         4/ 5
SISTER BAY LKSHO 2000          330/ 16/ 22   N/A
CHAMBERS ISLAND  2100   18     290/  9/ 15 1027.1S
MENOMINEE LKSHOR 2100   18     290/  9/ 12 1027.8R
$$


USA.gov is the U.S. government's official web portal to all federal, state and local government web resources and services.